Weather History for Washington, IA

Change the Weather History Date:

Sunday, November 6, 2011

  Actual Average Record
Temperature  
Mean Temperature 57 °F -  
Max Temperature 66 °F 50 °F 75 °F (2001)
Min Temperature 48 °F 33 °F 26 °F (2003)
Degree Days  
Heating Degree Days 8    
Growing Degree Days 7 (Base 50)    
Moisture  
Dew Point 45 °F    
Average Humidity 68    
Maximum Humidity 82    
Minimum Humidity 49    
Precipitation  
Precipitation 0.00 in - - ()
Sea Level Pressure  
Sea Level Pressure 29.91 in    
Wind  
Wind Speed 15 mph (SSW)    
Max Wind Speed 28 mph    
Max Gust Speed 36 mph    
Visibility 10 miles    
Events      
Averages and records for this station are not official NWS values.
T = Trace of Precipitation, MM = Missing Value Source: NWS Daily Summary

Daily Weather History Graph

Daily Weather History Graph

Search for Another Location

Airport:

Trip Planner

Search our weather history database for the weather conditions in past years. The results will help you decide how hot, cold, wet, or windy it might be!

Date:

Astronomy

Nov. 06, 2011 Rise Set
Actual Time 6:43 AM CST 4:56 PM CST
Civil Twilight 6:14 AM CST 5:25 PM CST
Nautical Twilight 5:41 AM CST 5:58 PM CST
Astronomical Twilight 5:09 AM CST 6:30 PM CST
Moon 2:42 PM CST (11/6) 2:48 AM CST (11/6)
Length of Visible Light 11h 10m
Length of Day
10h 12m
Waxing Gibbous, 86% of the Moon is Illuminated
Nov 6
Waxing Gibbous
Nov 10
Full
Nov 18
Last Quarter
Nov 25
New
Dec 2
First Quarter

Hourly Weather History & Observations

Time (CST) Temp. Dew Point Humidity Pressure Visibility Wind Dir Wind Speed Gust Speed Precip Events Conditions
12:15 AM 48.2 °F 42.8 °F 82% 29.88 in 7.0 mi SSE 15.0 mph - N/A   Clear
12:35 AM 48.2 °F 42.8 °F 82% 29.89 in 7.0 mi South 13.8 mph 18.4 mph N/A   Clear
12:55 AM 48.2 °F 42.8 °F 82% 29.90 in 7.0 mi South 16.1 mph 20.7 mph N/A   Clear
1:15 AM 50.0 °F 42.8 °F 76% 29.91 in 10.0 mi South 17.3 mph 21.9 mph N/A   Clear
1:35 AM 48.2 °F 42.8 °F 82% 29.90 in 10.0 mi South 16.1 mph 20.7 mph N/A   Clear
1:55 AM 48.2 °F 42.8 °F 82% 29.90 in 10.0 mi South 15.0 mph 19.6 mph N/A   Clear
1:15 AM 48.2 °F 42.8 °F 82% 29.89 in 10.0 mi South 13.8 mph 18.4 mph N/A   Clear
1:35 AM 48.2 °F 42.8 °F 82% 29.89 in 10.0 mi South 13.8 mph - N/A   Clear
1:55 AM 48.2 °F 42.8 °F 82% 29.89 in 10.0 mi South 13.8 mph 18.4 mph N/A   Scattered Clouds
2:15 AM 48.2 °F 42.8 °F 82% 29.89 in 10.0 mi South 15.0 mph 20.7 mph N/A   Mostly Cloudy
2:35 AM 50.0 °F 42.8 °F 76% 29.88 in 10.0 mi South 16.1 mph 20.7 mph N/A   Overcast
2:55 AM 51.8 °F 42.8 °F 71% 29.87 in 10.0 mi South 17.3 mph - N/A   Overcast
3:15 AM 51.8 °F 42.8 °F 71% 29.87 in 10.0 mi South 18.4 mph 21.9 mph N/A   Overcast
3:35 AM 50.0 °F 42.8 °F 76% 29.87 in 10.0 mi South 15.0 mph - N/A   Scattered Clouds
3:55 AM 50.0 °F 42.8 °F 76% 29.86 in 10.0 mi South 15.0 mph 21.9 mph N/A   Clear
4:15 AM 51.8 °F 42.8 °F 71% 29.86 in 10.0 mi South 15.0 mph - N/A   Clear
4:35 AM 50.0 °F 42.8 °F 76% 29.86 in 10.0 mi South 13.8 mph - N/A   Clear
4:55 AM 50.0 °F 42.8 °F 76% 29.86 in 10.0 mi South 13.8 mph - N/A   Clear
5:15 AM 50.0 °F 42.8 °F 76% 29.86 in 10.0 mi South 13.8 mph - N/A   Clear
5:35 AM 50.0 °F 44.6 °F 82% 29.85 in 10.0 mi South 13.8 mph - N/A   Clear
5:55 AM 50.0 °F 44.6 °F 82% 29.85 in 10.0 mi South 13.8 mph - N/A   Clear
6:15 AM 51.8 °F 44.6 °F 76% 29.85 in 10.0 mi South 13.8 mph - N/A   Clear
6:35 AM 50.0 °F 44.6 °F 82% 29.86 in 10.0 mi South 15.0 mph - N/A   Clear
6:55 AM 50.0 °F 44.6 °F 82% 29.85 in 10.0 mi South 15.0 mph 19.6 mph N/A   Clear
7:15 AM 51.8 °F 44.6 °F 76% 29.86 in 10.0 mi South 15.0 mph - N/A   Clear
7:35 AM 51.8 °F 44.6 °F 76% 29.87 in 10.0 mi South 16.1 mph - N/A   Clear
7:55 AM 51.8 °F 44.6 °F 76% 29.87 in 10.0 mi South 17.3 mph 24.2 mph N/A   Clear
8:15 AM 53.6 °F 44.6 °F 72% 29.87 in 10.0 mi South 20.7 mph 24.2 mph N/A   Scattered Clouds
8:35 AM 55.4 °F 46.4 °F 72% 29.87 in 10.0 mi South 18.4 mph 26.5 mph N/A   Scattered Clouds
8:55 AM 55.4 °F 46.4 °F 72% 29.87 in 10.0 mi South 18.4 mph 24.2 mph N/A   Clear
9:15 AM 55.4 °F 46.4 °F 72% 29.88 in 10.0 mi South 19.6 mph 24.2 mph N/A   Scattered Clouds
9:35 AM 59.0 °F 46.4 °F 63% 29.88 in 10.0 mi SSW 20.7 mph 26.5 mph N/A   Mostly Cloudy
9:55 AM 60.8 °F 46.4 °F 59% 29.89 in 10.0 mi SSW 20.7 mph 26.5 mph N/A   Mostly Cloudy
10:15 AM 60.8 °F 48.2 °F 63% 29.89 in 10.0 mi SSW 25.3 mph 32.2 mph N/A   Mostly Cloudy
10:35 AM 62.6 °F 48.2 °F 59% 29.90 in 10.0 mi SSW 24.2 mph 35.7 mph N/A   Mostly Cloudy
10:55 AM 64.4 °F 48.2 °F 56% 29.90 in 10.0 mi SSW 23.0 mph 31.1 mph N/A   Scattered Clouds
11:15 AM 64.4 °F 48.2 °F 56% 29.90 in 10.0 mi SSW 27.6 mph 34.5 mph N/A   Mostly Cloudy
11:35 AM 64.4 °F 46.4 °F 52% 29.91 in 10.0 mi SW 23.0 mph 35.7 mph N/A   Overcast
11:55 AM 64.4 °F 46.4 °F 52% 29.90 in 10.0 mi SW 23.0 mph 33.4 mph N/A   Overcast
12:15 PM 64.4 °F 46.4 °F 52% 29.90 in 10.0 mi SW 25.3 mph 32.2 mph N/A   Overcast
12:35 PM 64.4 °F 46.4 °F 52% 29.90 in 10.0 mi SW 19.6 mph 29.9 mph N/A   Overcast
12:55 PM 64.4 °F 46.4 °F 52% 29.90 in 10.0 mi SW 24.2 mph 32.2 mph N/A   Mostly Cloudy
1:15 PM 64.4 °F 46.4 °F 52% 29.91 in 10.0 mi SW 23.0 mph 29.9 mph N/A   Overcast
1:35 PM 66.2 °F 46.4 °F 49% 29.91 in 10.0 mi SW 21.9 mph 32.2 mph N/A   Mostly Cloudy
1:55 PM 66.2 °F 46.4 °F 49% 29.92 in 10.0 mi WSW 21.9 mph - N/A   Mostly Cloudy
2:15 PM 66.2 °F 46.4 °F 49% 29.92 in 10.0 mi SW 20.7 mph 25.3 mph N/A   Scattered Clouds
3:15 PM 64.4 °F 46.4 °F 52% 29.93 in 10.0 mi SW 13.8 mph - N/A   Scattered Clouds
3:35 PM 64.4 °F 46.4 °F 52% 29.94 in 10.0 mi WSW 13.8 mph - N/A   Scattered Clouds
3:55 PM 64.4 °F 46.4 °F 52% 29.94 in 10.0 mi SW 13.8 mph 18.4 mph N/A   Scattered Clouds
4:15 PM 62.6 °F 46.4 °F 55% 29.95 in 10.0 mi SW 10.4 mph - N/A   Clear
4:35 PM 62.6 °F 46.4 °F 55% 29.96 in 10.0 mi SW 6.9 mph - N/A   Clear
4:55 PM 59.0 °F 44.6 °F 59% 29.97 in 10.0 mi SW 3.5 mph - N/A   Clear
5:15 PM 57.2 °F 44.6 °F 63% 29.98 in 10.0 mi SW 4.6 mph - N/A   Scattered Clouds
5:35 PM 59.0 °F 46.4 °F 63% 29.99 in 10.0 mi SW 4.6 mph - N/A   Mostly Cloudy
5:55 PM 57.2 °F 46.4 °F 67% 30.00 in 10.0 mi SW 5.8 mph - N/A   Mostly Cloudy
6:15 PM 57.2 °F 46.4 °F 67% 30.01 in 10.0 mi SW 4.6 mph - N/A   Overcast
6:35 PM 55.4 °F 46.4 °F 72% 30.02 in 10.0 mi West 5.8 mph - N/A   Mostly Cloudy
6:55 PM 51.8 °F 44.6 °F 76% 30.03 in 10.0 mi West 3.5 mph - N/A   Scattered Clouds
7:15 PM 53.6 °F 44.6 °F 72% 30.03 in 10.0 mi WNW 5.8 mph - N/A   Clear
7:55 PM 48.2 °F 42.8 °F 82% 30.04 in 10.0 mi NW 6.9 mph - N/A   Clear
8:15 PM 50.0 °F 41.0 °F 71% 30.05 in 10.0 mi NW 6.9 mph - N/A   Clear
8:35 PM 48.2 °F 37.4 °F 66% 30.06 in 10.0 mi NW 4.6 mph - N/A   Clear
8:55 PM 48.2 °F 37.4 °F 66% 30.06 in 10.0 mi NNW 4.6 mph - N/A   Scattered Clouds
9:15 PM 48.2 °F 37.4 °F 66% 30.07 in 10.0 mi NNW 4.6 mph - N/A   Mostly Cloudy
9:35 PM 50.0 °F 39.2 °F 66% 30.08 in 10.0 mi NW 4.6 mph - N/A   Overcast
9:55 PM 50.0 °F 39.2 °F 66% 30.09 in 10.0 mi NW 4.6 mph - N/A   Overcast
10:15 PM 51.8 °F 37.4 °F 58% 30.09 in 10.0 mi NW 3.5 mph - N/A   Overcast
10:35 PM 51.8 °F 37.4 °F 58% 30.09 in 10.0 mi Calm Calm - N/A   Overcast
10:55 PM 48.2 °F 37.4 °F 66% 30.10 in 10.0 mi Calm Calm - N/A   Overcast